Location: Black Swamp Observatory
(41.3920°N, 84.1250°W)
Time: 12:11:48
(UTC-04:00)

Vanguard 2 - Pass Details

Date: 02 February 2022
Orbit: 552 x 2935 km, 32.9° (Epoch: 24 May)

Event Time Altitude Azimuth Distance (km) Brightness Sun altitude
Rises 20:19:12 0° 254° (WSW) 3,433 12.0 -27.4°
Maximum altitude 20:27:42 48° 176° (S) 1,687 9.1 -29.0°
Enters shadow 20:29:26 43° 146° (SE) 1,921 9.2 -29.3°
